PDT,Max TemperatureF,Mean TemperatureF,Min TemperatureF,Max Dew PointF,MeanDew PointF,Min DewpointF,Max Humidity, Mean Humidity, Min Humidity, Max Sea Level PressureIn, Mean Sea Level PressureIn, Min Sea Level PressureIn, Max VisibilityMiles, Mean VisibilityMiles, Min VisibilityMiles, Max Wind SpeedMPH, Mean Wind SpeedMPH, Max Gust SpeedMPH,PrecipitationIn, CloudCover, Events, WindDirDegrees
2013-4-1,64,57,49,52,49,46,89,77,64,30.18,30.11,30.02,10,10,10,14,5,18,0.00,8,,203
2013-4-2,67,58,48,49,47,45,89,69,48,30.22,30.18,30.12,10,10,10,10,4,,0.00,5,,210
2013-4-3,65,53,40,52,46,39,100,82,63,30.17,30.08,29.90,10,8,0,8,2,9,0.00,3,Fog,359
2013-4-4,64,59,53,56,52,46,93,79,64,29.89,29.78,29.70,10,8,2,26,10,37,0.16,7,Rain,172
2013-4-5,59,56,52,51,49,47,96,82,67,29.96,29.92,29.84,10,10,5,22,13,29,0.49,7,Rain,179
2013-4-6,56,52,48,50,47,43,96,81,66,30.01,29.92,29.70,10,9,5,25,12,36,0.62,8,Rain,189
2013-4-7,52,46,39,48,43,38,89,78,66,29.99,29.81,29.60,10,9,2,29,13,41,0.20,7,Rain,219
2013-4-8,55,46,37,43,39,38,100,78,55,30.30,30.17,30.01,10,10,9,15,5,17,0.02,7,Rain,227
2013-4-9,59,48,37,46,41,36,100,76,51,30.36,30.32,30.25,10,10,10,8,2,15,0.00,6,,151
2013-4-10,61,53,45,53,45,39,93,74,55,30.35,30.24,30.17,10,10,2,21,10,26,0.14,6,Rain,222
2013-4-11,57,47,37,42,39,37,100,76,51,30.36,30.29,30.18,10,10,10,10,3,13,0.00,5,,326
2013-4-12,55,45,35,45,40,35,92,73,54,30.16,30.00,29.89,10,10,5,16,6,22,0.03,5,Rain,220
2013-4-13,54,47,39,39,36,34,92,73,54,30.12,30.07,29.99,10,10,4,17,7,24,0.11,6,Rain,223
2013-4-14,48,44,39,43,39,36,93,85,76,30.11,30.01,29.95,10,10,10,14,6,17,0.24,8,Rain,195
2013-4-15,55,46,36,41,38,34,100,75,50,30.18,30.04,29.96,10,10,10,21,4,24,T,5,Rain,305
2013-4-16,59,47,35,41,38,35,100,74,47,30.40,30.29,30.20,10,10,10,18,4,23,0.00,5,,313
2013-4-17,60,47,34,43,39,34,100,72,43,30.51,30.46,30.41,10,10,3,13,4,17,0.00,6,,217
2013-4-18,62,54,46,49,43,39,82,68,53,30.49,30.43,30.33,10,10,9,12,3,17,0.05,7,Rain,229
2013-4-19,59,52,44,53,48,45,96,84,72,30.32,30.25,30.19,10,9,3,20,9,25,0.28,8,Rain,207
2013-4-20,61,52,43,47,44,41,100,76,51,30.36,30.32,30.27,10,10,10,15,4,17,0.00,6,,266
2013-4-21,56,51,46,47,43,39,82,74,66,30.32,30.29,30.24,10,10,10,13,6,16,T,8,,275
2013-4-22,67,53,39,42,37,28,92,60,27,30.41,30.36,30.32,10,10,10,22,9,29,0.00,2,,7
2013-4-23,70,53,35,37,34,29,85,54,22,30.37,30.24,30.13,10,10,10,15,5,20,0.00,0,,5
2013-4-24,74,55,36,38,35,31,92,57,22,30.24,30.13,30.00,10,10,10,20,7,22,0.00,0,,356
2013-4-25,78,59,40,47,41,37,82,56,29,30.14,30.07,30.02,10,10,10,10,2,13,0.00,0,,107
2013-4-26,81,62,42,48,43,38,92,58,23,30.24,30.20,30.16,10,10,10,10,2,13,0.00,0,,66
2013-4-27,73,59,44,45,41,33,83,56,29,30.27,30.23,30.20,10,10,10,15,5,18,0.00,1,,279
2013-4-28,67,59,51,49,46,40,83,64,45,30.28,30.22,30.12,10,10,10,15,6,20,0.00,7,Rain,193
2013-4-29,59,54,49,49,40,32,93,67,40,30.25,30.17,30.11,10,10,10,20,11,24,0.05,4,Rain,281
2013-4-30,59,46,32,37,34,32,96,69,41,30.44,30.34,30.25,10,10,10,13,2,16,0.00,4,,324